Flag for Russia Weather past 2 weeks in Volgograd, Russia

Now
34 °F

Passing clouds.


Feels Like: 25 °F
Forecast: 29 / 36 °F
Wind: 13 mph from West

Location: Volgograd Airport

Current Time: Dec 22, 2014 at 7:03:34 PM

Latest Report: Dec 22, 2014 at 6:30 PM


Visibility: N/A

Pressure: 29.86 "Hg

Humidity: 81%

Dew point: 28 °F

Location of VolgogradLocation

Historic Weather in Volgograd — Graph

°F

Volgograd temperature yesterday

Maximum temperature yesterday: 45 °F (at 11:00 AM)
Minimum temperature yesterday: 32 °F (at 6:00 PM)
Average temperature yesterday: 41 °F

Past Weeks' High & Low Weather Summary

 TemperatureHumidityPressure
High45 °F (Dec 12, 11:30 AM)100% (Dec 8, 9:00 AM)30.48 "Hg (Dec 8, 9:00 AM)
Low10 °F (Dec 11, 7:30 AM)50% (Dec 7, 6:00 PM)29.68 "Hg (Dec 22, 5:30 AM)
Average29 °F96%30.19 "Hg
* Reported Dec 7 6:00 PM — Dec 22 6:00 PM, Volgograd, Weather by CustomWeather, © 2014

Note: Actual official high and low records may vary slightly from our data, if they occured in-between our weather recording intervals... More about our weather records

Advertising

Volgograd weather history for previous 24 hours

 ConditionsComfort  
Time TempWeatherWind HumidityBarometerVisibility
6:00 PM
Dec 22
34 °FPassing clouds.8 mph81%29.86 "HgN/A
5:30 PM34 °FPassing clouds.13 mph75%29.86 "HgN/A
5:00 PM34 °FPassing clouds.13 mph75%29.83 "HgN/A
4:30 PM34 °FPassing clouds.13 mph75%29.83 "HgN/A
4:00 PM34 °FPartly sunny.13 mph81%29.83 "HgN/A
3:30 PM34 °FPartly sunny.13 mph81%29.83 "HgN/A
3:00 PM34 °FPartly sunny.13 mph81%29.83 "HgN/A
2:30 PM34 °FPartly sunny.13 mph87%29.80 "HgN/A
2:00 PM34 °FOvercast.15 mph87%29.80 "HgN/A
1:30 PM34 °FOvercast.15 mph93%29.80 "HgN/A
1:00 PM34 °FLow clouds.15 mph100%29.77 "HgN/A
12:30 PM34 °FFog.17 mph100%29.77 "Hg2 mi
12:00 PM36 °FFog.17 mph93%29.77 "Hg2 mi
11:30 AM36 °FScattered clouds.15 mph100%29.77 "HgN/A
11:00 AM36 °FScattered clouds.15 mph100%29.77 "HgN/A
10:30 AM37 °FScattered clouds.13 mph93%29.77 "HgN/A
10:00 AM36 °FFog.13 mph100%29.77 "Hg2 mi
9:30 AM36 °FSprinkles. Fog.10 mph100%29.74 "Hg2 mi
9:00 AM36 °FSprinkles. Scattered clouds.10 mph100%29.74 "HgN/A
8:30 AM36 °FSprinkles. Scattered clouds.13 mph100%29.74 "HgN/A
8:00 AM37 °FSprinkles. Scattered clouds.10 mph100%29.71 "HgN/A
7:30 AM37 °FSprinkles. Passing clouds.13 mph100%29.71 "HgN/A
6:30 AM39 °FSprinkles. Fog.8 mph100%29.68 "Hg2 mi
5:30 AM39 °FLight rain. Fog.6 mph100%29.68 "Hg1 mi
5:00 AM39 °FLight rain. Fog.6 mph100%29.71 "Hg0 mi
4:30 AM39 °FLight rain. Fog.3 mph100%29.71 "Hg0 mi
4:00 AM39 °FLight rain. Fog.8 mph100%29.71 "Hg0 mi
3:30 AM41 °FFog.10 mph93%29.71 "Hg1 mi
3:00 AM41 °FFog.13 mph100%29.74 "Hg1 mi
2:30 AM39 °FFog.8 mph100%29.74 "Hg1 mi
2:00 AM39 °FSprinkles. Fog.6 mph100%29.74 "Hg1 mi
1:30 AM39 °FSprinkles. Fog.6 mph100%29.74 "Hg0 mi
1:00 AM39 °FSprinkles. Fog.8 mph100%29.77 "Hg0 mi
12:30 AM39 °FSprinkles. Fog.8 mph100%29.77 "Hg0 mi
11:30 PM
Dec 21
37 °FSprinkles. Fog.6 mph100%29.80 "Hg1 mi
11:00 PM37 °FSprinkles. Fog.6 mph100%29.83 "Hg1 mi
10:30 PM37 °FFog.6 mph100%29.83 "Hg1 mi
10:00 PM36 °FFog.6 mph100%29.83 "Hg1 mi
9:30 PM36 °FFog.3 mph100%29.86 "Hg0 mi
9:00 PM36 °FFog.6 mph100%29.86 "Hg0 mi
8:30 PM34 °FFog.6 mph100%29.86 "Hg0 mi
8:00 PM34 °FFog.6 mph100%29.89 "Hg0 mi
7:30 PM32 °FFog.3 mph100%29.89 "Hg0 mi
7:00 PM32 °FIce fog.3 mph100%29.89 "Hg0 mi
Weather by CustomWeather, © 2014

See weather overviewHow to use our weather pages